Time,TemperatureF,DewpointF,PressureIn,WindDirection,WindDirectionDegrees,WindSpeedMPH,WindSpeedGustMPH,Humidity,HourlyPrecipIn,Conditions,Clouds,dailyrainin,SoftwareType,DateUTC
2013-03-30 00:02:00,59.9,41.2,29.99,NE,45,0.0,0.0,50,0.00,,,0.00,WUHU216HW,2013-03-30 07:02:00,
2013-03-30 00:07:00,59.5,41.8,29.99,NE,45,0.0,0.0,52,0.00,,,0.00,WUHU216HW,2013-03-30 07:07:00,
2013-03-30 00:12:00,59.3,41.7,29.99,NE,45,0.0,0.0,52,0.00,,,0.00,WUHU216HW,2013-03-30 07:12:00,
2013-03-30 00:17:00,59.1,41.5,29.99,ENE,68,0.0,0.0,52,0.00,,,0.00,WUHU216HW,2013-03-30 07:17:00,
2013-03-30 00:22:00,59.0,41.3,29.99,ENE,68,0.0,0.0,52,0.00,,,0.00,WUHU216HW,2013-03-30 07:22:00,
2013-03-30 00:27:00,58.6,41.0,30.00,ENE,68,0.0,0.0,52,0.00,,,0.00,WUHU216HW,2013-03-30 07:27:00,
2013-03-30 00:32:00,58.2,40.7,29.99,ENE,68,0.0,0.0,52,0.00,,,0.00,WUHU216HW,2013-03-30 07:32:00,
2013-03-30 00:37:00,58.1,40.5,29.99,South,180,0.0,0.0,52,0.00,,,0.00,WUHU216HW,2013-03-30 07:37:00,
2013-03-30 00:42:00,57.9,41.3,29.99,South,180,0.0,0.0,54,0.00,,,0.00,WUHU216HW,2013-03-30 07:42:00,
2013-03-30 00:47:00,57.5,41.0,29.99,South,180,0.0,0.0,54,0.00,,,0.00,WUHU216HW,2013-03-30 07:47:00,
2013-03-30 00:52:00,57.5,41.0,29.99,SSE,158,0.0,0.0,54,0.00,,,0.00,WUHU216HW,2013-03-30 07:52:00,
2013-03-30 00:57:00,57.3,41.3,29.99,SE,135,1.1,1.1,55,0.00,,,0.00,WUHU216HW,2013-03-30 07:57:00,
2013-03-30 01:02:00,57.5,41.9,29.99,South,180,0.2,1.1,56,0.00,,,0.00,WUHU216HW,2013-03-30 08:02:00,
2013-03-30 01:07:00,57.5,41.9,29.99,SSE,158,1.5,1.5,56,0.00,,,0.00,WUHU216HW,2013-03-30 08:07:00,
2013-03-30 01:12:00,57.5,41.9,29.98,SSE,158,0.0,1.5,56,0.00,,,0.00,WUHU216HW,2013-03-30 08:12:00,
2013-03-30 01:17:00,57.5,41.9,29.99,SSE,158,0.0,0.6,56,0.00,,,0.00,WUHU216HW,2013-03-30 08:17:00,
2013-03-30 01:23:00,57.5,41.9,29.98,SSE,158,0.0,0.0,56,0.00,,,0.00,WUHU216HW,2013-03-30 08:23:00,
2013-03-30 01:28:00,57.3,41.3,29.99,SSE,158,0.0,0.0,55,0.00,,,0.00,WUHU216HW,2013-03-30 08:28:00,
2013-03-30 01:33:00,57.3,41.8,29.98,SSE,158,0.0,0.0,56,0.00,,,0.00,WUHU216HW,2013-03-30 08:33:00,
2013-03-30 01:38:00,57.0,41.0,29.98,SSE,158,0.0,0.0,55,0.00,,,0.00,WUHU216HW,2013-03-30 08:38:00,
2013-03-30 01:43:00,56.8,40.8,29.98,SSE,158,0.0,0.0,55,0.00,,,0.00,WUHU216HW,2013-03-30 08:43:00,
2013-03-30 01:48:00,56.6,41.1,29.99,SSE,158,0.0,0.0,56,0.00,,,0.00,WUHU216HW,2013-03-30 08:48:00,
2013-03-30 01:53:00,56.4,40.9,29.98,SSE,158,0.0,0.0,56,0.00,,,0.00,WUHU216HW,2013-03-30 08:53:00,
2013-03-30 01:58:00,56.3,40.7,29.98,SSW,203,0.0,0.0,56,0.00,,,0.00,WUHU216HW,2013-03-30 08:58:00,
2013-03-30 02:03:00,56.3,41.2,29.98,SSW,203,0.0,0.0,57,0.00,,,0.00,WUHU216HW,2013-03-30 09:03:00,
2013-03-30 02:08:00,56.3,41.2,29.98,SSW,203,0.0,0.0,57,0.00,,,0.00,WUHU216HW,2013-03-30 09:08:00,
2013-03-30 02:13:00,56.3,41.2,29.98,South,180,0.0,0.0,57,0.00,,,0.00,WUHU216HW,2013-03-30 09:13:00,
2013-03-30 02:18:00,56.3,42.1,29.98,South,180,0.0,0.0,59,0.00,,,0.00,WUHU216HW,2013-03-30 09:18:00,
2013-03-30 02:23:00,56.3,42.1,29.98,South,180,0.0,0.0,59,0.00,,,0.00,WUHU216HW,2013-03-30 09:23:00,
2013-03-30 02:28:00,56.1,42.4,29.99,NE,45,0.0,0.0,60,0.00,,,0.00,WUHU216HW,2013-03-30 09:28:00,
2013-03-30 02:33:00,55.7,42.0,29.98,North,0,0.0,0.0,60,0.00,,,0.00,WUHU216HW,2013-03-30 09:33:00,
2013-03-30 02:38:00,55.7,42.0,29.99,North,0,0.0,0.0,60,0.00,,,0.00,WUHU216HW,2013-03-30 09:38:00,
2013-03-30 02:43:00,55.5,41.9,29.99,North,0,0.0,0.0,60,0.00,,,0.00,WUHU216HW,2013-03-30 09:43:00,
2013-03-30 02:48:00,55.4,41.7,29.99,North,0,0.0,0.0,60,0.00,,,0.00,WUHU216HW,2013-03-30 09:48:00,
2013-03-30 02:53:00,55.2,41.3,29.99,North,0,0.0,0.0,60,0.00,,,0.00,WUHU216HW,2013-03-30 09:53:00,
2013-03-30 02:58:00,55.0,41.3,29.99,North,0,0.0,0.0,60,0.00,,,0.00,WUHU216HW,2013-03-30 09:58:00,
2013-03-30 03:03:00,54.8,41.2,29.99,North,0,0.0,0.0,60,0.00,,,0.00,WUHU216HW,2013-03-30 10:03:00,
2013-03-30 03:08:00,54.6,41.0,29.98,North,0,0.0,0.0,60,0.00,,,0.00,WUHU216HW,2013-03-30 10:08:00,
2013-03-30 03:13:00,54.5,40.9,29.98,North,0,0.0,0.0,60,0.00,,,0.00,WUHU216HW,2013-03-30 10:13:00,
2013-03-30 03:18:00,54.1,40.9,29.98,North,0,0.0,0.0,61,0.00,,,0.00,WUHU216HW,2013-03-30 10:18:00,
2013-03-30 03:23:00,54.1,40.9,29.98,North,0,0.0,0.0,61,0.00,,,0.00,WUHU216HW,2013-03-30 10:23:00,
2013-03-30 03:28:00,53.9,40.8,29.98,North,0,0.0,0.0,61,0.00,,,0.00,WUHU216HW,2013-03-30 10:28:00,
2013-03-30 03:33:00,53.7,41.0,29.98,SSE,158,0.0,1.7,62,0.00,,,0.00,WUHU216HW,2013-03-30 10:33:00,
2013-03-30 03:38:00,53.6,40.8,29.97,SSE,158,0.0,1.7,62,0.00,,,0.00,WUHU216HW,2013-03-30 10:38:00,
2013-03-30 03:43:00,53.6,41.2,29.97,SSE,158,0.0,0.0,63,0.00,,,0.00,WUHU216HW,2013-03-30 10:43:00,
2013-03-30 03:48:00,53.4,41.1,29.97,SSE,158,0.0,0.0,63,0.00,,,0.00,WUHU216HW,2013-03-30 10:48:00,
2013-03-30 03:53:00,53.2,40.5,29.97,SSE,158,0.0,0.0,62,0.00,,,0.00,WUHU216HW,2013-03-30 10:53:00,
2013-03-30 03:58:00,53.2,40.5,29.97,SSE,158,0.0,0.0,62,0.00,,,0.00,WUHU216HW,2013-03-30 10:58:00,
2013-03-30 04:03:00,53.0,40.3,29.97,SSE,158,0.0,0.0,62,0.00,,,0.00,WUHU216HW,2013-03-30 11:03:00,
2013-03-30 04:08:00,53.0,40.7,29.97,SSE,158,0.0,0.0,63,0.00,,,0.00,WUHU216HW,2013-03-30 11:08:00,
2013-03-30 04:13:00,52.8,40.5,29.97,West,270,0.0,0.0,64,0.00,,,0.00,WUHU216HW,2013-03-30 11:13:00,
2013-03-30 04:18:00,52.8,40.9,29.97,West,270,0.0,0.0,64,0.00,,,0.00,WUHU216HW,2013-03-30 11:18:00,
2013-03-30 04:23:00,52.8,40.9,29.97,West,270,0.0,0.0,64,0.00,,,0.00,WUHU216HW,2013-03-30 11:23:00,
2013-03-30 04:28:00,52.7,40.8,29.97,West,270,0.0,0.0,64,0.00,,,0.00,WUHU216HW,2013-03-30 11:28:00,
2013-03-30 04:33:00,52.3,41.2,29.97,West,270,0.0,0.0,66,0.00,,,0.00,WUHU216HW,2013-03-30 11:33:00,
2013-03-30 04:38:00,52.3,41.2,29.97,West,270,0.0,0.0,66,0.00,,,0.00,WUHU216HW,2013-03-30 11:38:00,
2013-03-30 04:43:00,52.3,41.2,29.97,West,270,0.0,0.0,66,0.00,,,0.00,WUHU216HW,2013-03-30 11:43:00,
2013-03-30 04:48:00,52.1,41.1,29.97,West,270,0.0,0.0,66,0.00,,,0.00,WUHU216HW,2013-03-30 11:48:00,
2013-03-30 04:53:00,51.9,41.3,29.97,West,270,0.0,0.0,67,0.00,,,0.00,WUHU216HW,2013-03-30 11:53:00,
2013-03-30 04:58:00,51.8,40.9,29.97,West,270,0.0,0.0,66,0.00,,,0.00,WUHU216HW,2013-03-30 11:58:00,
2013-03-30 05:03:00,51.6,40.6,29.97,West,270,0.0,0.0,66,0.00,,,0.00,WUHU216HW,2013-03-30 12:03:00,
2013-03-30 05:08:00,51.6,40.6,29.97,West,270,0.0,0.0,66,0.00,,,0.00,WUHU216HW,2013-03-30 12:08:00,
2013-03-30 05:13:00,51.4,40.8,29.97,West,270,0.0,0.0,67,0.00,,,0.00,WUHU216HW,2013-03-30 12:13:00,
2013-03-30 05:18:00,51.2,40.6,29.97,West,270,0.0,0.0,67,0.00,,,0.00,WUHU216HW,2013-03-30 12:18:00,
2013-03-30 05:23:00,51.2,41.0,29.97,West,270,0.0,0.0,68,0.00,,,0.00,WUHU216HW,2013-03-30 12:23:00,
2013-03-30 05:28:00,50.9,40.7,29.97,West,270,0.0,0.0,68,0.00,,,0.00,WUHU216HW,2013-03-30 12:28:00,
2013-03-30 05:33:00,50.9,40.7,29.97,West,270,0.0,0.0,68,0.00,,,0.00,WUHU216HW,2013-03-30 12:33:00,
2013-03-30 05:39:00,50.7,40.1,29.97,West,270,0.0,0.0,67,0.00,,,0.00,WUHU216HW,2013-03-30 12:39:00,
2013-03-30 05:44:00,50.7,40.5,29.97,West,270,0.0,0.0,68,0.00,,,0.00,WUHU216HW,2013-03-30 12:44:00,
2013-03-30 05:49:00,50.7,40.5,29.97,West,270,0.0,0.0,68,0.00,,,0.00,WUHU216HW,2013-03-30 12:49:00,
2013-03-30 05:54:00,50.5,40.3,29.97,West,270,0.0,0.0,68,0.00,,,0.00,WUHU216HW,2013-03-30 12:54:00,
2013-03-30 05:59:00,50.3,40.1,29.97,West,270,0.0,0.0,68,0.00,,,0.00,WUHU216HW,2013-03-30 12:59:00,
2013-03-30 06:04:00,50.3,40.1,29.97,West,270,0.0,0.0,68,0.00,,,0.00,WUHU216HW,2013-03-30 13:04:00,
2013-03-30 06:09:00,50.5,40.7,29.97,West,270,0.0,0.0,69,0.00,,,0.00,WUHU216HW,2013-03-30 13:09:00,
2013-03-30 06:14:00,50.5,41.1,29.97,West,270,0.0,0.0,70,0.00,,,0.00,WUHU216HW,2013-03-30 13:14:00,
2013-03-30 06:19:00,50.7,41.3,29.97,West,270,0.0,0.0,70,0.00,,,0.00,WUHU216HW,2013-03-30 13:19:00,
2013-03-30 06:24:00,50.7,41.3,29.98,West,270,0.0,0.0,70,0.00,,,0.00,WUHU216HW,2013-03-30 13:24:00,
2013-03-30 06:29:00,50.7,41.3,29.98,West,270,0.0,0.0,70,0.00,,,0.00,WUHU216HW,2013-03-30 13:29:00,
2013-03-30 06:34:00,50.7,41.3,29.98,West,270,0.0,0.0,70,0.00,,,0.00,WUHU216HW,2013-03-30 13:34:00,
2013-03-30 06:39:00,50.7,41.3,29.99,West,270,0.0,0.0,70,0.00,,,0.00,WUHU216HW,2013-03-30 13:39:00,
2013-03-30 06:44:00,50.7,41.3,29.99,West,270,0.0,0.0,70,0.00,,,0.00,WUHU216HW,2013-03-30 13:44:00,
2013-03-30 06:49:00,50.7,41.3,29.99,West,270,0.0,0.0,70,0.00,,,0.00,WUHU216HW,2013-03-30 13:49:00,
2013-03-30 06:54:00,50.7,41.3,29.99,West,270,0.0,0.0,70,0.00,,,0.00,WUHU216HW,2013-03-30 13:54:00,
2013-03-30 06:59:00,50.7,41.3,29.99,West,270,0.0,0.0,70,0.00,,,0.00,WUHU216HW,2013-03-30 13:59:00,
2013-03-30 07:04:00,50.7,41.3,29.99,West,270,0.0,0.0,70,0.00,,,0.00,WUHU216HW,2013-03-30 14:04:00,
2013-03-30 07:09:00,50.7,41.3,29.99,West,270,0.0,0.0,70,0.00,,,0.00,WUHU216HW,2013-03-30 14:09:00,
2013-03-30 07:14:00,50.7,41.3,29.99,West,270,0.0,0.0,70,0.00,,,0.00,WUHU216HW,2013-03-30 14:14:00,
2013-03-30 07:19:00,50.7,41.3,29.99,West,270,0.0,0.0,70,0.00,,,0.00,WUHU216HW,2013-03-30 14:19:00,
2013-03-30 07:24:00,50.9,41.5,29.99,West,270,0.0,0.0,70,0.00,,,0.00,WUHU216HW,2013-03-30 14:24:00,
2013-03-30 07:29:00,50.9,41.1,29.99,West,270,0.0,0.0,69,0.00,,,0.00,WUHU216HW,2013-03-30 14:29:00,
2013-03-30 07:34:00,51.2,41.4,29.99,West,270,0.0,0.0,69,0.00,,,0.00,WUHU216HW,2013-03-30 14:34:00,
2013-03-30 07:39:00,51.4,41.9,29.99,West,270,0.0,0.0,70,0.00,,,0.00,WUHU216HW,2013-03-30 14:39:00,
2013-03-30 07:44:00,51.8,42.4,29.99,West,270,0.0,0.0,70,0.00,,,0.00,WUHU216HW,2013-03-30 14:44:00,
2013-03-30 07:49:00,51.8,42.7,29.99,SSE,158,0.0,2.6,71,0.00,,,0.00,WUHU216HW,2013-03-30 14:49:00,
2013-03-30 07:54:00,52.5,43.7,29.99,SSE,158,1.3,2.6,72,0.00,,,0.00,WUHU216HW,2013-03-30 14:54:00,
2013-03-30 07:59:00,52.7,43.5,29.99,SSE,158,0.0,1.3,71,0.00,,,0.00,WUHU216HW,2013-03-30 14:59:00,
2013-03-30 08:04:00,53.2,44.4,29.99,South,180,0.6,1.3,72,0.00,,,0.00,WUHU216HW,2013-03-30 15:04:00,
2013-03-30 08:09:00,53.7,44.5,29.99,SSE,158,0.0,0.6,71,0.00,,,0.00,WUHU216HW,2013-03-30 15:09:00,
2013-03-30 08:14:00,54.1,45.3,29.99,SSW,203,0.0,0.6,72,0.00,,,0.00,WUHU216HW,2013-03-30 15:14:00,
2013-03-30 08:19:00,54.8,46.0,29.99,SSW,203,0.0,0.0,72,0.00,,,0.00,WUHU216HW,2013-03-30 15:19:00,
2013-03-30 08:24:00,55.2,46.0,29.99,SSW,203,0.0,0.0,71,0.00,,,0.00,WUHU216HW,2013-03-30 15:24:00,
2013-03-30 08:29:00,55.7,47.0,29.99,North,0,0.0,0.0,72,0.00,,,0.00,WUHU216HW,2013-03-30 15:29:00,
2013-03-30 08:34:00,56.4,47.1,29.99,SSW,203,0.8,0.8,71,0.00,,,0.00,WUHU216HW,2013-03-30 15:34:00,
2013-03-30 08:39:00,56.6,47.3,29.99,South,180,1.3,1.3,71,0.00,,,0.00,WUHU216HW,2013-03-30 15:39:00,
2013-03-30 08:44:00,57.7,48.0,29.98,South,180,1.3,1.3,71,0.00,,,0.00,WUHU216HW,2013-03-30 15:44:00,
2013-03-30 08:49:00,58.4,48.7,29.99,SSW,203,0.0,1.3,70,0.00,,,0.00,WUHU216HW,2013-03-30 15:49:00,
2013-03-30 08:54:00,58.4,48.3,29.99,SSW,203,1.1,1.3,69,0.00,,,0.00,WUHU216HW,2013-03-30 15:54:00,
2013-03-30 08:59:00,59.1,49.5,29.99,SSW,203,0.0,1.1,69,0.00,,,0.00,WUHU216HW,2013-03-30 15:59:00,
2013-03-30 09:04:00,60.0,49.5,29.99,SSW,203,0.0,1.1,68,0.00,,,0.00,WUHU216HW,2013-03-30 16:04:00,
2013-03-30 09:09:00,60.6,49.2,29.99,SSW,203,0.0,0.0,66,0.00,,,0.00,WUHU216HW,2013-03-30 16:09:00,
2013-03-30 09:14:00,61.8,49.9,29.99,NW,315,0.0,0.0,65,0.00,,,0.00,WUHU216HW,2013-03-30 16:14:00,
2013-03-30 09:19:00,62.4,50.0,29.99,NW,315,0.0,0.0,64,0.00,,,0.00,WUHU216HW,2013-03-30 16:19:00,
2013-03-30 09:24:00,62.4,49.6,29.99,NW,315,0.0,0.0,63,0.00,,,0.00,WUHU216HW,2013-03-30 16:24:00,
2013-03-30 09:29:00,63.8,50.5,29.99,NW,315,0.0,0.0,62,0.00,,,0.00,WUHU216HW,2013-03-30 16:29:00,
2013-03-30 09:34:00,64.5,51.2,29.99,WNW,293,0.0,0.0,62,0.00,,,0.00,WUHU216HW,2013-03-30 16:34:00,
2013-03-30 09:39:00,64.5,50.7,29.99,WNW,293,0.0,0.0,61,0.00,,,0.00,WUHU216HW,2013-03-30 16:39:00,
2013-03-30 09:44:00,66.3,51.6,30.00,WNW,293,0.0,0.0,59,0.00,,,0.00,WUHU216HW,2013-03-30 16:44:00,
2013-03-30 09:49:00,66.9,51.6,30.00,NW,315,0.0,0.8,58,0.00,,,0.00,WUHU216HW,2013-03-30 16:49:00,
2013-03-30 09:54:00,67.4,51.6,29.99,NNW,338,2.2,2.2,57,0.00,,,0.00,WUHU216HW,2013-03-30 16:54:00,
2013-03-30 09:59:00,68.1,50.8,29.99,NNE,23,1.7,2.2,54,0.00,,,0.00,WUHU216HW,2013-03-30 16:59:00,
2013-03-30 10:04:00,68.1,50.3,29.99,North,0,1.5,2.2,53,0.00,,,0.00,WUHU216HW,2013-03-30 17:04:00,
2013-03-30 10:09:00,68.5,50.6,30.00,ENE,68,2.6,2.6,53,0.00,,,0.00,WUHU216HW,2013-03-30 17:09:00,
2013-03-30 10:14:00,68.7,50.3,29.99,NNW,338,0.8,2.6,52,0.00,,,0.00,WUHU216HW,2013-03-30 17:14:00,
2013-03-30 10:19:00,68.9,49.5,29.99,NNW,338,0.8,2.4,50,0.00,,,0.00,WUHU216HW,2013-03-30 17:19:00,
2013-03-30 10:24:00,68.9,49.5,29.99,NNW,338,0.0,0.8,50,0.00,,,0.00,WUHU216HW,2013-03-30 17:24:00,
2013-03-30 10:29:00,69.4,50.0,30.00,WSW,248,2.4,2.4,50,0.00,,,0.00,WUHU216HW,2013-03-30 17:29:00,
2013-03-30 10:34:00,69.9,50.5,30.00,NNW,338,0.6,2.4,50,0.00,,,0.00,WUHU216HW,2013-03-30 17:34:00,
2013-03-30 10:39:00,70.3,50.2,30.00,NNW,338,0.6,2.4,49,0.00,,,0.00,WUHU216HW,2013-03-30 17:39:00,
2013-03-30 10:44:00,70.7,49.3,30.00,NNW,338,1.7,4.6,47,0.00,,,0.00,WUHU216HW,2013-03-30 17:44:00,
2013-03-30 10:49:00,70.7,49.3,30.01,North,0,0.0,4.6,47,0.00,,,0.00,WUHU216HW,2013-03-30 17:49:00,
2013-03-30 10:54:00,71.4,49.4,30.00,North,0,1.5,2.9,46,0.00,,,0.00,WUHU216HW,2013-03-30 17:54:00,
2013-03-30 11:00:00,71.7,49.7,30.00,NW,315,0.0,2.9,46,0.00,,,0.00,WUHU216HW,2013-03-30 18:00:00,
2013-03-30 11:05:00,71.9,49.9,30.00,NNW,338,2.0,2.0,46,0.00,,,0.00,WUHU216HW,2013-03-30 18:05:00,
2013-03-30 11:10:00,71.9,49.3,30.00,NNE,23,0.0,4.0,45,0.00,,,0.00,WUHU216HW,2013-03-30 18:10:00,
2013-03-30 11:15:00,72.1,49.4,30.01,North,0,4.2,4.2,45,0.00,,,0.00,WUHU216HW,2013-03-30 18:15:00,
2013-03-30 11:20:00,72.3,49.6,30.01,North,0,3.8,4.2,45,0.00,,,0.00,WUHU216HW,2013-03-30 18:20:00,
2013-03-30 11:25:00,72.6,49.2,30.01,NNW,338,6.7,6.7,44,0.00,,,0.00,WUHU216HW,2013-03-30 18:25:00,
2013-03-30 11:30:00,72.8,49.5,30.01,NNW,338,6.7,6.7,44,0.00,,,0.00,WUHU216HW,2013-03-30 18:30:00,
2013-03-30 11:35:00,73.0,49.7,30.01,North,0,0.0,6.7,44,0.00,,,0.00,WUHU216HW,2013-03-30 18:35:00,
2013-03-30 11:40:00,73.0,49.7,30.01,North,0,2.6,6.7,44,0.00,,,0.00,WUHU216HW,2013-03-30 18:40:00,
2013-03-30 11:45:00,73.7,50.3,30.01,North,0,4.6,4.6,44,0.00,,,0.00,WUHU216HW,2013-03-30 18:45:00,
2013-03-30 11:50:00,73.9,49.9,30.01,NNW,338,1.3,6.0,43,0.00,,,0.00,WUHU216HW,2013-03-30 18:50:00,
2013-03-30 11:55:00,74.4,50.4,30.01,NNW,338,0.0,6.0,43,0.00,,,0.00,WUHU216HW,2013-03-30 18:55:00,
2013-03-30 12:00:00,74.6,50.0,30.00,NW,315,4.2,4.2,42,0.00,,,0.00,WUHU216HW,2013-03-30 19:00:00,
2013-03-30 12:05:00,75.0,50.9,30.00,North,0,0.0,4.2,43,0.00,,,0.00,WUHU216HW,2013-03-30 19:05:00,
2013-03-30 12:10:00,75.3,50.6,30.00,NNW,338,5.3,5.5,42,0.00,,,0.00,WUHU216HW,2013-03-30 19:10:00,
2013-03-30 12:15:00,75.5,50.8,30.00,North,0,1.5,5.5,42,0.00,,,0.00,WUHU216HW,2013-03-30 19:15:00,
2013-03-30 12:20:00,75.5,50.8,30.00,North,0,1.5,5.3,42,0.00,,,0.00,WUHU216HW,2013-03-30 19:20:00,
2013-03-30 12:25:00,75.9,50.5,30.00,SSW,203,3.8,3.8,41,0.00,,,0.00,WUHU216HW,2013-03-30 19:25:00,
2013-03-30 12:30:00,76.1,50.7,29.99,NW,315,0.0,3.8,41,0.00,,,0.00,WUHU216HW,2013-03-30 19:30:00,
2013-03-30 12:35:00,76.8,51.3,29.99,North,0,0.0,3.8,41,0.00,,,0.00,WUHU216HW,2013-03-30 19:35:00,
2013-03-30 12:40:00,77.3,51.8,29.99,North,0,2.6,2.6,41,0.00,,,0.00,WUHU216HW,2013-03-30 19:40:00,
2013-03-30 12:45:00,77.9,51.7,29.99,NE,45,0.4,2.6,40,0.00,,,0.00,WUHU216HW,2013-03-30 19:45:00,
2013-03-30 12:50:00,78.2,50.4,29.99,NNW,338,0.0,2.6,38,0.00,,,0.00,WUHU216HW,2013-03-30 19:50:00,
2013-03-30 12:55:00,78.4,49.8,29.99,North,0,2.2,2.2,37,0.00,,,0.00,WUHU216HW,2013-03-30 19:55:00,
2013-03-30 13:00:00,78.4,49.8,29.99,NE,45,0.0,2.2,37,0.00,,,0.00,WUHU216HW,2013-03-30 20:00:00,
2013-03-30 13:05:00,78.0,50.3,29.99,NE,45,0.0,2.2,38,0.00,,,0.00,WUHU216HW,2013-03-30 20:05:00,
2013-03-30 13:10:00,77.7,50.0,29.99,South,180,0.0,1.7,38,0.00,,,0.00,WUHU216HW,2013-03-30 20:10:00,
2013-03-30 13:15:00,77.7,51.5,29.99,NNE,23,1.5,1.7,40,0.00,,,0.00,WUHU216HW,2013-03-30 20:15:00,
2013-03-30 13:20:00,77.9,51.7,29.99,NNW,338,2.2,2.2,40,0.00,,,0.00,WUHU216HW,2013-03-30 20:20:00,
2013-03-30 13:25:00,77.9,50.9,29.99,NNW,338,4.2,4.2,39,0.00,,,0.00,WUHU216HW,2013-03-30 20:25:00,
2013-03-30 13:30:00,77.7,50.0,29.99,North,0,2.6,4.2,38,0.00,,,0.00,WUHU216HW,2013-03-30 20:30:00,
2013-03-30 13:35:00,77.3,50.4,29.99,North,0,0.0,4.2,39,0.00,,,0.00,WUHU216HW,2013-03-30 20:35:00,
2013-03-30 13:40:00,77.3,50.4,29.98,NNW,338,1.5,3.3,39,0.00,,,0.00,WUHU216HW,2013-03-30 20:40:00,
2013-03-30 13:45:00,77.3,50.4,29.98,North,0,3.3,3.3,39,0.00,,,0.00,WUHU216HW,2013-03-30 20:45:00,
2013-03-30 13:50:00,77.5,50.4,29.98,NNW,338,2.4,3.3,39,0.00,,,0.00,WUHU216HW,2013-03-30 20:50:00,
2013-03-30 13:55:00,77.7,50.7,29.98,NNW,338,0.0,2.4,39,0.00,,,0.00,WUHU216HW,2013-03-30 20:55:00,
2013-03-30 14:00:00,77.7,50.7,29.98,NNW,338,3.5,3.5,39,0.00,,,0.00,WUHU216HW,2013-03-30 21:00:00,
2013-03-30 14:05:00,77.9,50.1,29.98,NNW,338,4.4,4.4,38,0.00,,,0.00,WUHU216HW,2013-03-30 21:05:00,
2013-03-30 14:10:00,77.9,49.4,29.98,NNW,338,4.4,4.4,37,0.00,,,0.00,WUHU216HW,2013-03-30 21:10:00,
2013-03-30 14:15:00,78.4,50.6,29.97,SE,135,0.0,4.4,38,0.00,,,0.00,WUHU216HW,2013-03-30 21:15:00,
2013-03-30 14:20:00,78.6,50.0,29.97,NNW,338,2.4,2.4,37,0.00,,,0.00,WUHU216HW,2013-03-30 21:20:00,
2013-03-30 14:25:00,78.9,50.3,29.97,NNW,338,3.1,3.1,37,0.00,,,0.00,WUHU216HW,2013-03-30 21:25:00,
2013-03-30 14:30:00,79.1,51.2,29.97,SSW,203,0.0,3.1,38,0.00,,,0.00,WUHU216HW,2013-03-30 21:30:00,
2013-03-30 14:35:00,79.7,51.7,29.96,North,0,3.1,3.1,38,0.00,,,0.00,WUHU216HW,2013-03-30 21:35:00,
2013-03-30 14:40:00,79.8,50.3,29.97,NNW,338,0.0,3.1,36,0.00,,,0.00,WUHU216HW,2013-03-30 21:40:00,
2013-03-30 14:45:00,79.7,50.2,29.96,NNW,338,2.0,3.1,36,0.00,,,0.00,WUHU216HW,2013-03-30 21:45:00,
2013-03-30 14:50:00,80.2,51.4,29.96,NNE,23,0.0,2.0,37,0.00,,,0.00,WUHU216HW,2013-03-30 21:50:00,
2013-03-30 14:55:00,80.4,50.8,29.96,South,180,0.0,2.0,36,0.00,,,0.00,WUHU216HW,2013-03-30 21:55:00,
2013-03-30 15:00:00,81.3,51.6,29.96,ENE,68,0.0,0.0,36,0.00,,,0.00,WUHU216HW,2013-03-30 22:00:00,
2013-03-30 15:05:00,82.0,52.2,29.96,WNW,293,0.0,0.0,36,0.00,,,0.00,WUHU216HW,2013-03-30 22:05:00,
2013-03-30 15:10:00,82.5,50.3,29.96,WSW,248,0.0,0.0,33,0.00,,,0.00,WUHU216HW,2013-03-30 22:10:00,
2013-03-30 15:15:00,82.5,49.5,29.95,SW,225,0.0,0.0,32,0.00,,,0.00,WUHU216HW,2013-03-30 22:15:00,
2013-03-30 15:20:00,82.7,49.7,29.95,ENE,68,0.0,3.8,32,0.00,,,0.00,WUHU216HW,2013-03-30 22:20:00,
2013-03-30 15:25:00,82.2,49.2,29.95,NNW,338,1.1,3.8,32,0.00,,,0.00,WUHU216HW,2013-03-30 22:25:00,
2013-03-30 15:30:00,81.6,48.8,29.95,North,0,1.7,1.7,32,0.00,,,0.00,WUHU216HW,2013-03-30 22:30:00,
2013-03-30 15:35:00,81.3,49.3,29.95,WNW,293,1.5,2.6,33,0.00,,,0.00,WUHU216HW,2013-03-30 22:35:00,
2013-03-30 15:40:00,81.5,49.4,29.95,NNW,338,5.1,5.1,33,0.00,,,0.00,WUHU216HW,2013-03-30 22:40:00,
2013-03-30 15:45:00,82.5,49.5,29.95,NNE,23,1.1,5.1,32,0.00,,,0.00,WUHU216HW,2013-03-30 22:45:00,
2013-03-30 15:50:00,82.4,48.6,29.95,NNW,338,2.6,5.1,31,0.00,,,0.00,WUHU216HW,2013-03-30 22:50:00,
2013-03-30 15:55:00,81.6,48.1,29.95,NNW,338,0.0,2.6,31,0.00,,,0.00,WUHU216HW,2013-03-30 22:55:00,
2013-03-30 16:00:00,81.6,48.8,29.95,SW,225,0.0,0.4,32,0.00,,,0.00,WUHU216HW,2013-03-30 23:00:00,
2013-03-30 16:05:00,82.4,50.2,29.94,SSW,203,0.0,2.2,33,0.00,,,0.00,WUHU216HW,2013-03-30 23:05:00,
2013-03-30 16:10:00,84.3,51.9,29.94,South,180,0.0,2.2,33,0.00,,,0.00,WUHU216HW,2013-03-30 23:10:00,
2013-03-30 16:15:00,85.4,50.5,29.94,South,180,0.0,0.0,30,0.00,,,0.00,WUHU216HW,2013-03-30 23:15:00,
2013-03-30 16:20:00,85.4,50.5,29.94,NNW,338,0.0,0.0,30,0.00,,,0.00,WUHU216HW,2013-03-30 23:20:00,
2013-03-30 16:25:00,85.4,50.5,29.94,South,180,0.0,0.0,30,0.00,,,0.00,WUHU216HW,2013-03-30 23:25:00,
2013-03-30 16:30:00,85.2,50.4,29.94,SSE,158,0.0,0.0,30,0.00,,,0.00,WUHU216HW,2013-03-30 23:30:00,
2013-03-30 16:35:00,85.2,50.4,29.94,SSE,158,0.0,0.0,30,0.00,,,0.00,WUHU216HW,2013-03-30 23:35:00,
2013-03-30 16:40:00,85.2,50.4,29.94,ESE,113,0.0,1.5,30,0.00,,,0.00,WUHU216HW,2013-03-30 23:40:00,
2013-03-30 16:45:00,84.9,50.1,29.94,NNE,23,0.0,1.5,30,0.00,,,0.00,WUHU216HW,2013-03-30 23:45:00,
2013-03-30 16:50:00,84.2,49.4,29.94,SSE,158,0.0,0.0,30,0.00,,,0.00,WUHU216HW,2013-03-30 23:50:00,
2013-03-30 16:55:00,83.8,49.9,29.93,SSE,158,0.0,0.0,31,0.00,,,0.00,WUHU216HW,2013-03-30 23:55:00,
2013-03-30 17:00:00,83.6,48.9,29.93,North,0,0.0,0.0,30,0.00,,,0.00,WUHU216HW,2013-03-31 00:00:00,
2013-03-30 17:05:00,83.3,48.6,29.93,North,0,0.0,0.0,30,0.00,,,0.00,WUHU216HW,2013-03-31 00:05:00,
2013-03-30 17:10:00,83.1,49.2,29.93,NNW,338,2.2,2.2,31,0.00,,,0.00,WUHU216HW,2013-03-31 00:10:00,
2013-03-30 17:15:00,82.9,49.1,29.93,NNW,338,0.0,2.2,31,0.00,,,0.00,WUHU216HW,2013-03-31 00:15:00,
2013-03-30 17:20:00,82.4,48.6,29.93,North,0,0.6,2.2,31,0.00,,,0.00,WUHU216HW,2013-03-31 00:20:00,
2013-03-30 17:25:00,82.2,48.4,29.92,North,0,0.0,1.7,31,0.00,,,0.00,WUHU216HW,2013-03-31 00:25:00,
2013-03-30 17:31:00,81.3,47.7,29.92,NNW,338,0.0,5.3,31,0.00,,,0.00,WUHU216HW,2013-03-31 00:31:00,
2013-03-30 17:36:00,80.4,48.3,29.92,NNW,338,2.0,5.3,32,0.00,,,0.00,WUHU216HW,2013-03-31 00:36:00,
2013-03-30 17:41:00,79.3,46.0,29.92,North,0,6.4,6.4,31,0.00,,,0.00,WUHU216HW,2013-03-31 00:41:00,
2013-03-30 17:46:00,78.9,46.4,29.93,NNW,338,2.4,6.4,32,0.00,,,0.00,WUHU216HW,2013-03-31 00:46:00,
2013-03-30 17:51:00,77.7,45.4,29.93,NNW,338,2.6,6.4,32,0.00,,,0.00,WUHU216HW,2013-03-31 00:51:00,
2013-03-30 17:56:00,77.1,45.7,29.92,NW,315,0.0,6.7,33,0.00,,,0.00,WUHU216HW,2013-03-31 00:56:00,
2013-03-30 18:01:00,76.8,46.2,29.93,West,270,0.0,6.7,34,0.00,,,0.00,WUHU216HW,2013-03-31 01:01:00,
2013-03-30 18:06:00,76.4,45.8,29.93,North,0,3.1,3.1,34,0.00,,,0.00,WUHU216HW,2013-03-31 01:06:00,
2013-03-30 18:11:00,76.2,45.7,29.93,North,0,0.4,3.1,34,0.00,,,0.00,WUHU216HW,2013-03-31 01:11:00,
2013-03-30 18:16:00,76.1,46.3,29.93,NNW,338,4.4,4.4,35,0.00,,,0.00,WUHU216HW,2013-03-31 01:16:00,
2013-03-30 18:21:00,75.3,46.4,29.93,NNW,338,0.0,4.4,36,0.00,,,0.00,WUHU216HW,2013-03-31 01:21:00,
2013-03-30 18:26:00,74.8,45.9,29.93,NNW,338,3.3,3.8,36,0.00,,,0.00,WUHU216HW,2013-03-31 01:26:00,
2013-03-30 18:31:00,74.6,45.7,29.93,NW,315,4.0,4.0,36,0.00,,,0.00,WUHU216HW,2013-03-31 01:31:00,
2013-03-30 18:36:00,74.1,46.0,29.93,NNW,338,0.6,6.0,37,0.00,,,0.00,WUHU216HW,2013-03-31 01:36:00,
2013-03-30 18:41:00,73.9,46.6,29.93,NNW,338,1.7,6.0,38,0.00,,,0.00,WUHU216HW,2013-03-31 01:41:00,
2013-03-30 18:46:00,73.5,46.3,29.93,North,0,1.3,2.2,38,0.00,,,0.00,WUHU216HW,2013-03-31 01:46:00,
2013-03-30 18:51:00,73.0,45.8,29.93,NNW,338,0.6,2.2,38,0.00,,,0.00,WUHU216HW,2013-03-31 01:51:00,
2013-03-30 18:56:00,72.5,45.3,29.93,North,0,0.0,2.9,38,0.00,,,0.00,WUHU216HW,2013-03-31 01:56:00,
2013-03-30 19:01:00,72.3,45.9,29.93,NNW,338,2.6,2.9,39,0.00,,,0.00,WUHU216HW,2013-03-31 02:01:00,
2013-03-30 19:06:00,71.9,45.6,29.93,North,0,2.2,2.6,39,0.00,,,0.00,WUHU216HW,2013-03-31 02:06:00,
2013-03-30 19:11:00,71.6,45.3,29.94,NNW,338,0.0,2.6,39,0.00,,,0.00,WUHU216HW,2013-03-31 02:11:00,
2013-03-30 19:16:00,71.2,44.9,29.94,North,0,0.0,2.2,39,0.00,,,0.00,WUHU216HW,2013-03-31 02:16:00,
2013-03-30 19:21:00,70.8,44.6,29.94,NNW,338,2.0,2.0,39,0.00,,,0.00,WUHU216HW,2013-03-31 02:21:00,
2013-03-30 19:26:00,70.5,44.3,29.94,NNW,338,4.9,4.9,39,0.00,,,0.00,WUHU216HW,2013-03-31 02:26:00,
2013-03-30 19:31:00,70.1,44.0,29.94,NNW,338,0.0,4.9,39,0.00,,,0.00,WUHU216HW,2013-03-31 02:31:00,
2013-03-30 19:36:00,70.1,44.0,29.94,NNW,338,0.0,0.0,39,0.00,,,0.00,WUHU216HW,2013-03-31 02:36:00,
2013-03-30 19:41:00,69.9,43.6,29.94,NE,45,0.0,1.3,39,0.00,,,0.00,WUHU216HW,2013-03-31 02:41:00,
2013-03-30 19:46:00,69.4,43.3,29.93,ENE,68,0.0,1.3,39,0.00,,,0.00,WUHU216HW,2013-03-31 02:46:00,
2013-03-30 19:51:00,69.2,43.1,29.94,NE,45,0.0,0.0,39,0.00,,,0.00,WUHU216HW,2013-03-31 02:51:00,
2013-03-30 19:56:00,68.9,42.8,29.94,NNE,23,0.0,0.0,39,0.00,,,0.00,WUHU216HW,2013-03-31 02:56:00,
2013-03-30 20:01:00,68.9,42.8,29.94,NNE,23,0.0,0.0,39,0.00,,,0.00,WUHU216HW,2013-03-31 03:01:00,
2013-03-30 20:07:00,68.5,43.2,29.94,NNE,23,0.0,0.0,40,0.00,,,0.00,WUHU216HW,2013-03-31 03:07:00,
2013-03-30 20:12:00,68.3,43.1,29.94,NNE,23,0.0,0.0,40,0.00,,,0.00,WUHU216HW,2013-03-31 03:12:00,
2013-03-30 20:17:00,68.1,42.9,29.94,NNW,338,0.0,0.0,40,0.00,,,0.00,WUHU216HW,2013-03-31 03:17:00,
2013-03-30 20:23:00,67.8,42.6,29.94,NNW,338,0.0,0.0,40,0.00,,,0.00,WUHU216HW,2013-03-31 03:23:00,
2013-03-30 20:28:00,67.6,42.4,29.94,North,0,0.0,0.0,40,0.00,,,0.00,WUHU216HW,2013-03-31 03:28:00,
2013-03-30 20:33:00,67.4,42.3,29.94,North,0,0.0,0.0,40,0.00,,,0.00,WUHU216HW,2013-03-31 03:33:00,
2013-03-30 20:38:00,67.2,42.1,29.94,North,0,0.0,0.0,40,0.00,,,0.00,WUHU216HW,2013-03-31 03:38:00,
2013-03-30 20:43:00,67.1,42.5,29.94,NNW,338,0.0,0.0,41,0.00,,,0.00,WUHU216HW,2013-03-31 03:43:00,
2013-03-30 20:48:00,66.9,42.4,29.94,NNW,338,0.0,0.0,41,0.00,,,0.00,WUHU216HW,2013-03-31 03:48:00,
2013-03-30 20:53:00,66.7,42.8,29.95,NNW,338,0.0,0.0,42,0.00,,,0.00,WUHU216HW,2013-03-31 03:53:00,
2013-03-30 20:58:00,66.5,42.6,29.95,NNW,338,0.0,0.0,42,0.00,,,0.00,WUHU216HW,2013-03-31 03:58:00,
2013-03-30 21:03:00,66.5,42.6,29.95,NNW,338,0.0,0.0,42,0.00,,,0.00,WUHU216HW,2013-03-31 04:03:00,
2013-03-30 21:08:00,66.3,42.5,29.95,NNW,338,0.0,0.0,42,0.00,,,0.00,WUHU216HW,2013-03-31 04:08:00,
2013-03-30 21:13:00,66.3,43.1,29.96,NNW,338,0.0,0.0,43,0.00,,,0.00,WUHU216HW,2013-03-31 04:13:00,
2013-03-30 21:18:00,66.0,42.7,29.95,NNW,338,0.0,0.0,43,0.00,,,0.00,WUHU216HW,2013-03-31 04:18:00,
2013-03-30 21:23:00,65.8,43.2,29.96,NNW,338,0.0,0.0,44,0.00,,,0.00,WUHU216HW,2013-03-31 04:23:00,
2013-03-30 21:28:00,65.6,43.0,29.96,NNW,338,0.0,0.0,44,0.00,,,0.00,WUHU216HW,2013-03-31 04:28:00,
2013-03-30 21:33:00,65.4,43.4,29.95,NNW,338,0.0,0.0,45,0.00,,,0.00,WUHU216HW,2013-03-31 04:33:00,
2013-03-30 21:38:00,65.4,44.0,29.96,NNW,338,0.0,0.0,46,0.00,,,0.00,WUHU216HW,2013-03-31 04:38:00,
2013-03-30 21:43:00,65.3,43.8,29.96,NNW,338,0.0,0.0,46,0.00,,,0.00,WUHU216HW,2013-03-31 04:43:00,
2013-03-30 21:48:00,65.1,44.2,29.95,NNW,338,0.0,0.0,47,0.00,,,0.00,WUHU216HW,2013-03-31 04:48:00,
2013-03-30 21:53:00,64.9,44.6,29.96,NNW,338,0.0,0.0,48,0.00,,,0.00,WUHU216HW,2013-03-31 04:53:00,
2013-03-30 21:58:00,64.5,44.3,29.97,NNW,338,0.0,0.0,48,0.00,,,0.00,WUHU216HW,2013-03-31 04:58:00,
2013-03-30 22:03:00,64.4,44.7,29.96,NNW,338,0.0,0.0,49,0.00,,,0.00,WUHU216HW,2013-03-31 05:03:00,
2013-03-30 22:08:00,64.0,44.4,29.97,NNW,338,0.0,0.0,49,0.00,,,0.00,WUHU216HW,2013-03-31 05:08:00,
2013-03-30 22:13:00,63.8,44.2,29.97,NNW,338,0.0,0.0,49,0.00,,,0.00,WUHU216HW,2013-03-31 05:13:00,
2013-03-30 22:18:00,63.5,44.5,29.97,NNW,338,0.0,0.0,50,0.00,,,0.00,WUHU216HW,2013-03-31 05:18:00,
2013-03-30 22:23:00,63.3,44.3,29.97,NNW,338,0.0,0.0,50,0.00,,,0.00,WUHU216HW,2013-03-31 05:23:00,
2013-03-30 22:28:00,62.9,44.0,29.97,NNW,338,0.0,0.0,50,0.00,,,0.00,WUHU216HW,2013-03-31 05:28:00,
2013-03-30 22:33:00,62.7,44.3,29.97,NNW,338,0.0,0.0,51,0.00,,,0.00,WUHU216HW,2013-03-31 05:33:00,
2013-03-30 22:38:00,62.6,44.1,29.97,NNW,338,0.0,0.0,51,0.00,,,0.00,WUHU216HW,2013-03-31 05:38:00,
2013-03-30 22:43:00,62.2,44.3,29.97,NNW,338,0.0,0.0,52,0.00,,,0.00,WUHU216HW,2013-03-31 05:43:00,
2013-03-30 22:48:00,61.8,44.0,29.97,NNW,338,0.0,0.0,52,0.00,,,0.00,WUHU216HW,2013-03-31 05:48:00,
2013-03-30 22:53:00,61.7,44.8,29.97,NNW,338,0.0,0.0,54,0.00,,,0.00,WUHU216HW,2013-03-31 05:53:00,
2013-03-30 22:58:00,61.3,45.4,29.96,NNW,338,0.0,0.0,56,0.00,,,0.00,WUHU216HW,2013-03-31 05:58:00,
2013-03-30 23:03:00,60.9,45.1,29.97,NNW,338,0.0,0.0,56,0.00,,,0.00,WUHU216HW,2013-03-31 06:03:00,
2013-03-30 23:08:00,60.8,44.9,29.97,NNW,338,0.0,0.0,56,0.00,,,0.00,WUHU216HW,2013-03-31 06:08:00,
2013-03-30 23:13:00,60.6,44.8,29.96,NNW,338,0.0,0.0,56,0.00,,,0.00,WUHU216HW,2013-03-31 06:13:00,
2013-03-30 23:18:00,60.4,45.1,29.96,NNW,338,0.0,0.0,57,0.00,,,0.00,WUHU216HW,2013-03-31 06:18:00,
2013-03-30 23:23:00,60.2,45.4,29.97,NNW,338,0.0,0.0,58,0.00,,,0.00,WUHU216HW,2013-03-31 06:23:00,
2013-03-30 23:28:00,60.2,45.4,29.97,NNW,338,0.0,0.0,58,0.00,,,0.00,WUHU216HW,2013-03-31 06:28:00,
2013-03-30 23:33:00,60.2,45.4,29.96,NNW,338,0.0,0.0,58,0.00,,,0.00,WUHU216HW,2013-03-31 06:33:00,
2013-03-30 23:38:00,60.2,45.4,29.97,NNW,338,0.0,0.0,58,0.00,,,0.00,WUHU216HW,2013-03-31 06:38:00,
2013-03-30 23:43:00,60.2,45.9,29.97,NNW,338,0.0,0.0,59,0.00,,,0.00,WUHU216HW,2013-03-31 06:43:00,
2013-03-30 23:48:00,60.2,45.4,29.97,SE,135,2.6,2.6,58,0.00,,,0.00,WUHU216HW,2013-03-31 06:48:00,
2013-03-30 23:53:00,60.2,45.9,29.97,SE,135,0.0,2.6,59,0.00,,,0.00,WUHU216HW,2013-03-31 06:53:00,
2013-03-30 23:58:00,60.2,45.9,29.98,SE,135,0.0,2.6,59,0.00,,,0.00,WUHU216HW,2013-03-31 06:58:00,